This is the latest recevied weather packets stored in our database for station/object E20YUC-1. If no packets are shown the sender has not sent any weather packets the latest 10 day(s).
| Time | Temp. | Humidity | Pressure | Rain* | Wind** | Luminosity | Snow |
|---|---|---|---|---|---|---|---|
| 1787674909 | 28.89° C | 70% | 996.2 hPa | 0 mm | 3.13 m/s, 0° | - | - |
| 1787674611 | 29.44° C | 70% | 996.2 hPa | 0 mm | 4.02 m/s, 0° | - | - |
| 1787674009 | 29.44° C | 70% | 996.3 hPa | 0 mm | 51.41 m/s, 0° | - | - |
| 1787673409 | 29.44° C | 70% | 996.4 hPa | 0 mm | 4.47 m/s, 0° | - | - |
| 1787673110 | 29.44° C | 69% | 996.5 hPa | 0 mm | 1.34 m/s, 0° | - | - |
| 1787672808 | 29.44° C | 69% | 996.6 hPa | 0 mm | 1.79 m/s, 0° | - | - |
| 1787672508 | 29.44° C | 69% | 996.6 hPa | 0 mm | 51.41 m/s, 0° | - | - |
| 1787671908 | 29.44° C | 68% | 996.5 hPa | 0 mm | 2.24 m/s, 0° | - | - |
| 1787671610 | 29.44° C | 68% | 996.6 hPa | 0 mm | 2.68 m/s, 0° | - | - |
| 1787671308 | 29.44° C | 68% | 996.5 hPa | 0 mm | 1.34 m/s, 0° | - | - |
| 1787670708 | 29.44° C | 67% | 996.5 hPa | 0 mm | 0 m/s | - | - |
| 1787670409 | 29.44° C | 67% | 996.4 hPa | 0 mm | 1.34 m/s, 0° | - | - |
| 1787670110 | 30° C | 67% | 996.5 hPa | 0 mm | 0.89 m/s, 0° | - | - |
| 1787669508 | 30° C | 67% | 996.5 hPa | 0 mm | 0 m/s | - | - |
| 1787668908 | 30° C | 67% | 996.4 hPa | 0 mm | 2.24 m/s, 0° | - | - |
| 1787668610 | 30° C | 67% | 996.3 hPa | 0 mm | 3.13 m/s, 0° | - | - |
| 1787668308 | 30° C | 66% | 996.3 hPa | 0 mm | 0 m/s | - | - |
| 1787668008 | 30° C | 66% | 996.2 hPa | 0 mm | 1.79 m/s, 0° | - | - |
| 1787667408 | 30° C | 66% | 996.4 hPa | 0 mm | 0.89 m/s, 0° | - | - |
| 1787667109 | 30° C | 66% | 996.3 hPa | 0 mm | 3.13 m/s, 0° | - | - |
| 1787666808 | 30° C | 66% | 996 hPa | 0 mm | 3.13 m/s, 0° | - | - |
| 1787666207 | 30° C | 66% | 995.9 hPa | 0 mm | 1.34 m/s, 0° | - | - |
| 1787665907 | 30° C | 66% | 995.8 hPa | 0 mm | 2.68 m/s, 0° | - | - |
| 1787665609 | 30° C | 65% | 995.7 hPa | 0 mm | 3.58 m/s, 0° | - | - |
| 1787665307 | 30° C | 65% | 995.7 hPa | 0 mm | 2.24 m/s, 0° | - | - |
* Rain latest hour (hover to see other rain measurements)
** Current wind speed in m/s (hover to see current wind gust speed)